This demonstration page uses our WeatherBlox Daily Observations layout. Learn more.

Left ArrowRight Arrow

Hourly Observations for March 16, 2020

Temp ( °F °C ) Dew Point ( °F °C ) Humidity (%) Winds ( mph kmh ) Pressure ( in mb ) Visibility ( mi km ) Precip ( " mm )
12:56 am 00:56 Cloudy 32 0 31 -0.6 96 96 SE 8 13 30.29 1026 8 13 0.00 0.00
1:56 am 01:56 Cloudy with Light Wintry Mix 32 0 31 -0.6 96 96 SSE 10 17 30.26 1025 4 6 0.00 0.00
2:56 am 02:56 Cloudy 32 0 31 -0.6 96 96 SSE 9 15 30.27 1025 7 11 0.00 0.00
3:56 am 03:56 Cloudy with Mist and Fog 32 0 31 -0.6 96 96 SE 9 15 30.24 1024 6 10 0.00 0.00
4:56 am 04:56 Cloudy with Mist and Fog 32 0 31 -0.6 96 96 SE 9 15 30.23 1024 5 8 0.00 0.00
5:10 am 05:10 Cloudy with Mist and Fog 32 0 30 -1 93 93 SE 9 15 30.26 1025 4 6 0.00 0.00
5:56 am 05:56 Cloudy with Mist and Fog 32 0 31 -0.6 96 96 SSE 9 15 30.23 1024 3 5 0.00 0.00
6:56 am 06:56 Cloudy with Mist and Fog 32 0 31 -0.6 96 96 SE 3 6 30.24 1024 4 6 0.00 0.00
7:52 am 07:52 Cloudy with Mist and Fog 32 0 30 -1 93 93 SE 5 7 30.29 1026 2 3 0.00 0.00
7:56 am 07:56 Cloudy with Mist and Fog 32 0 31 -0.6 96 96 SE 3 6 30.25 1025 2 3 0.00 0.00
8:46 am 08:46 Cloudy with Mist and Fog 34 1 32 0 93 93 SE 3 6 30.28 1025 1 2 0.00 0.00
8:56 am 08:56 Cloudy with Mist and Fog 33 0.6 32 0 96 96 ESE 5 7 30.25 1025 1 2 0.00 0.00
9:03 am 09:03 Cloudy with Light Wintry Mix 34 1 32 0 93 93 ESE 3 6 30.28 1025 1 2 0.00 0.00
9:56 am 09:56 Cloudy with Mist and Fog 34 1.1 33 0.6 97 97 ESE 3 6 30.26 1025 2 3 0.00 0.00
10:56 am 10:56 Cloudy with Mist and Fog 37 2.8 36 2.2 96 96 Calm 30.26 1025 2 3 0.00 0.00
11:30 am 11:30 Cloudy with Mist and Fog 37 3 36 2 93 93 SSE 3 6 30.27 1025 3 4 0.00 0.00
11:35 am 11:35 Cloudy with Mist and Fog 37 3 36 2 93 93 SE 3 6 30.27 1025 3 5 0.00 0.00
11:44 am 11:44 Cloudy with Mist and Fog 37 3 37 3 100 100 SE 3 6 30.27 1025 3 4 0.00 0.00
11:53 am 11:53 Cloudy with Mist and Fog 39 4 37 3 93 93 Calm 30.27 1025 4 6 0.00 0.00
11:56 am 11:56 Cloudy with Mist and Fog 39 3.9 38 3.3 96 96 Calm 30.26 1025 5 8 0.00 0.00
12:56 pm 12:56 Cloudy 36 2.2 34 1.1 93 93 NW 3 6 30.26 1025 7 11 0.00 0.00
1:30 pm 13:30 Cloudy with Mist and Fog 36 2 34 1 93 93 Calm 30.27 1025 4 6 0.00 0.00
1:56 pm 13:56 Cloudy 38 3.3 35 1.7 89 89 Calm 30.25 1024 8 13 0.00 0.00
2:30 pm 14:30 Cloudy 39 4 36 2 87 87 NNW 3 6 30.26 1025 10 16 0.00 0.00
2:56 pm 14:56 Cloudy 40 4.4 35 1.7 83 83 N 6 9 30.23 1024 10 16 0.00 0.00
3:31 pm 15:31 Cloudy 41 5 36 2 81 81 NNE 6 9 30.24 1024 10 16 0.00 0.00
3:56 pm 15:56 Cloudy 41 5 36 2.2 82 82 NNE 8 13 30.22 1023 10 16 0.00 0.00
4:56 pm 16:56 Cloudy 41 5 36 2.2 82 82 NNE 9 15 30.22 1023 10 16 0.00 0.00
5:56 pm 17:56 Cloudy 41 5 36 2.2 82 82 NNE 9 15 30.23 1024 10 16 0.00 0.00
6:56 pm 18:56 Cloudy 39 3.9 36 2.2 89 89 N 16 26 30.24 1024 10 16 0.00 0.00
7:13 pm 19:13 Cloudy with Light Rain 37 3 36 2 93 93 N 16 26 30.26 1025 6 10 0.00 0.00
7:24 pm 19:24 Cloudy 37 3 36 2 93 93 N 12 19 30.27 1025 9 14 0.00 0.00
7:56 pm 19:56 Cloudy 38 3.3 35 1.7 89 89 N 14 22 30.27 1025 10 16 0.00 0.00
8:05 pm 20:05 Cloudy 37 3 36 2 93 93 N 12 19 30.29 1026 10 16 0.00 0.00
8:18 pm 20:18 Cloudy 37 3 36 2 93 93 N 12 19 30.29 1026 10 16 0.00 0.00
8:40 pm 20:40 Cloudy 37 3 34 1 87 87 N 12 19 30.30 1026 10 16 0.00 0.00
8:56 pm 20:56 Cloudy 37 2.8 34 1.1 89 89 N 13 20 30.29 1026 10 16 0.00 0.00
9:48 pm 21:48 Cloudy 36 2 34 1 93 93 N 14 22 30.34 1028 10 16 0.00 0.00
9:56 pm 21:56 Cloudy 36 2.2 34 1.1 93 93 N 14 22 30.32 1027 10 16 0.00 0.00
10:33 pm 22:33 Cloudy 36 2 34 1 93 93 N 12 19 30.35 1028 10 16 0.00 0.00
10:56 pm 22:56 Cloudy 35 1.7 33 0.6 93 93 N 13 20 30.33 1027 10 16 0.00 0.00
11:14 pm 23:14 Cloudy 36 2 32 0 87 87 N 13 20 30.36 1028 10 16 0.00 0.00
11:29 pm 23:29 Cloudy 36 2 32 0 87 87 NNE 9 15 30.36 1028 10 16 0.00 0.00
11:56 pm 23:56 Cloudy 35 1.7 32 0 89 89 N 9 15 30.35 1028 10 16 0.00 0.00

Powered by AerisWeather